EW9733 Weather Reports


time (UTC)temp
C
wind
direction
speed
KPH
gust
KPH
rain 1hr
cm
rain 24hr
cm
rain mn
cm
humidity
%
barometer
mb
20260508060002 8 300 0.0 1.6 0.00 0.76 0.00 57 1006.4
20260508054601 9 276 0.0 1.6 0.00 0.76 0.00 54 1006.4
20260508053101 10 263 0.0 1.6 0.00 0.76 0.00 53 1006.5
20260508051608 10 259 0.0 8.0 0.00 0.76 0.00 51 1006.5
20260508050104 10 284 0.0 6.4 0.00 0.76 0.00 50 1006.5
20260508044555 10 273 0.0 4.8 0.00 0.76 0.00 51 1006.6
20260508043050 10 255 0.0 6.4 0.00 0.76 0.00 52 1006.5
20260508041552 10 329 0.0 3.2 0.00 0.76 0.00 52 1006.6
20260508040054 10 296 0.0 3.2 0.00 0.76 0.00 54 1006.5
20260508034548 10 296 0.0 11.3 0.00 0.76 0.76 53 1006.6
20260508033047 10 272 0.0 9.7 0.00 0.76 0.76 53 1006.5
20260508031545 10 326 0.0 3.2 0.00 0.76 0.76 53 1006.6
20260508030052 10 246 0.0 3.2 0.00 0.76 0.76 53 1006.6
20260508024545 11 355 0.0 4.8 0.00 0.76 0.76 53 1006.6
20260508023043 11 286 0.0 3.2 0.00 0.76 0.76 52 1006.6
20260508021543 11 288 0.0 4.8 0.00 0.76 0.76 51 1006.7
20260508020043 11 277 0.0 1.6 0.00 0.76 0.76 49 1006.7
20260508014542 12 324 0.0 9.7 0.00 0.76 0.76 47 1006.6
20260508013041 12 311 0.0 1.6 0.00 0.76 0.76 46 1006.3
20260508011541 12 254 0.0 11.3 0.00 0.76 0.76 46 1006.1
20260508010041 12 265 0.0 3.2 0.00 0.76 0.76 45 1006.0
20260508004547 12 311 0.0 8.0 0.00 0.76 0.76 44 1005.6
20260508003046 12 263 3.2 11.3 0.00 0.76 0.76 44 1005.2
20260508001541 13 303 0.0 9.7 0.00 0.76 0.76 44 1005.1
20260508000038 13 304 0.0 6.4 0.00 0.76 0.76 42 1004.9
20260507234548 14 360 0.0 6.4 0.00 0.84 0.76 42 1004.8
20260507233044 15 284 1.6 16.1 0.00 0.84 0.76 41 1004.8
20260507231538 15 314 1.6 20.9 0.00 0.84 0.76 38 1004.6
20260507230037 15 261 1.6 16.1 0.00 0.84 0.76 39 1004.5
20260507224537 16 267 0.0 6.4 0.00 0.89 0.76 41 1004.2
20260507223046 16 254 1.6 6.4 0.00 0.89 0.76 41 1004.1
20260507221536 16 37 1.6 12.9 0.00 0.89 0.76 37 1004.1
20260507220039 16 337 1.6 12.9 0.00 0.89 0.76 39 1004.1
20260507214535 16 277 0.0 8.0 0.00 0.89 0.76 37 1003.8
20260507213035 17 32 0.0 16.1 0.00 0.89 0.76 37 1003.8
20260507211541 17 24 1.6 8.0 0.00 0.89 0.76 36 1003.8
20260507210041 17 350 0.0 12.9 0.00 0.89 0.76 38 1003.7
20260507204536 17 355 3.2 16.1 0.00 0.91 0.76 42 1003.6
20260507203030 17 321 0.0 12.9 0.00 0.91 0.76 33 1003.7
20260507201529 18 25 0.0 20.9 0.00 0.91 0.76 41 1003.6
20260507200031 18 315 4.8 19.3 0.00 0.91 0.76 37 1003.7
20260507194535 18 330 3.2 17.7 0.00 0.91 0.76 33 1003.7
20260507193025 18 82 1.6 16.1 0.00 0.91 0.76 34 1003.9
20260507191524 18 237 4.8 16.1 0.00 0.91 0.76 38 1004.1
20260507190036 18 269 1.6 12.9 0.00 0.91 0.76 41 1004.2
20260507184527 18 242 1.6 9.7 0.00 0.91 0.76 36 1004.3
20260507183019 18 355 3.2 12.9 0.00 0.91 0.76 40 1004.5
20260507181518 18 19 3.2 11.3 0.00 0.91 0.76 42 1004.7
20260507180116 18 221 1.6 14.5 0.00 0.91 0.76 41 1004.8
20260507174515 17 204 1.6 11.3 0.00 0.91 0.76 43 1004.7
20260507173033 17 338 4.8 14.5 0.00 0.91 0.76 45 1004.8
20260507171511 18 348 3.2 9.7 0.00 0.91 0.76 52 1004.9
20260507170016 17 279 0.0 8.0 0.00 0.91 0.76 49 1005.0
20260507164519 17 214 3.2 8.0 0.00 0.91 0.76 56 1005.1
20260507163005 16 209 0.0 6.4 0.00 0.91 0.76 57 1005.3
20260507161505 16 12 1.6 11.3 0.00 0.91 0.76 57 1005.6
20260507160004 15 10 0.0 9.7 0.00 0.91 0.76 56 1005.8
20260507154503 15 226 1.6 14.5 0.00 0.91 0.76 57 1006.0
20260507153001 15 275 1.6 6.4 0.00 0.91 0.76 58 1006.0
20260507151501 15 252 1.6 9.7 0.00 0.91 0.76 60 1006.1
20260507150059 15 56 1.6 8.0 0.00 0.91 0.76 62 1006.2
20260507144554 15 321 0.0 11.3 0.00 0.91 0.76 68 1006.3
20260507143050 14 248 1.6 12.9 0.00 0.91 0.76 65 1006.5
20260507141548 13 255 1.6 9.7 0.00 0.91 0.76 65 1006.7
20260507140044 13 292 1.6 6.4 0.00 0.91 0.76 71 1006.6
20260507134538 13 360 0.0 6.4 0.00 0.91 0.76 78 1006.8
20260507133034 12 323 1.6 6.4 0.00 0.91 0.76 88 1006.8
20260507131531 11 21 3.2 9.7 0.00 0.91 0.76 92 1006.9
20260507130035 11 333 1.6 6.4 0.00 0.91 0.76 93 1006.9
20260507124535 10 244 0.0 4.8 0.00 0.91 0.76 93 1006.9
20260507123024 10 199 0.0 3.2 0.00 0.91 0.76 93 1007.1
20260507121523 10 261 0.0 3.2 0.10 0.91 0.76 93 1006.8
20260507120019 9 261 0.0 3.2 0.18 0.91 0.76 92 1006.8
20260507114516 9 259 0.0 0.0 0.20 0.91 0.76 92 1006.7
20260507113034 9 259 0.0 0.0 0.20 0.91 0.76 92 1006.5
20260507111513 9 259 0.0 1.6 0.10 0.81 0.66 92 1006.7
20260507110015 9 259 0.0 3.2 0.08 0.71 0.58 92 1006.6
20260507104511 10 264 0.0 3.2 0.05 0.71 0.56 92 1006.6
20260507103010 10 264 0.0 3.2 0.08 0.71 0.56 92 1006.6
20260507101513 10 252 0.0 1.6 0.08 0.71 0.56 92 1006.6
20260507100005 10 252 0.0 4.8 0.03 0.66 0.51 92 1006.4
20260507094502 10 286 0.0 4.8 0.08 0.66 0.51 91 1006.1
20260507093059 10 280 0.0 8.0 0.08 0.64 0.48 91 1006.2
20260507091632 11 336 0.0 14.5 0.15 0.64 0.48 91 1005.9
20260507090054 11 292 1.6 4.8 0.25 0.64 0.48 91 1005.7
20260507084603 11 309 0.0 4.8 0.41 0.58 0.43 91 1005.7
20260507083049 12 318 0.0 4.8 0.41 0.56 0.41 91 1005.3
20260507081553 12 277 0.0 3.2 0.33 0.48 0.33 91 1005.7
20260507080046 12 275 0.0 3.2 0.23 0.38 0.23 90 1005.5
20260507074548 12 337 0.0 11.3 0.03 0.18 0.03 90 1005.6
20260507073040 13 348 0.0 4.8 0.00 0.15 0.00 91 1004.6
20260507071539 13 262 0.0 6.4 0.00 0.15 0.00 92 1004.5
20260507070037 13 268 0.0 4.8 0.00 0.15 0.00 92 1004.6
20260507064537 13 264 0.0 1.6 0.00 0.15 0.00 93 1004.6
20260507063038 14 264 0.0 4.8 0.00 0.15 0.00 93 1004.6
20260507061536 14 264 0.0 1.6 0.00 0.15 0.00 93 1004.7